DLH3ME EDDC-LEPA

Flight info

Callsign DLH3ME
Flight time N/A
Altitude 40000
Route MAREM8E MAREM DCT YUJKI DCT PEMEL DCT RUDAP DCT EBEDA DCT BADVI DCT BERAS DCT OLPIX/N0470F410 DCT EKPEB DCT PIDAD DCT TALEP DCT RARQU DCT BALEN/N0427F290 UT250 RIXOT
Aircraft A339/H-SADE1E2E3GHIJ3J5M1P2RWXY/LB2D1

Departure

Time 2026-05-08 15:34
Airport Dresden Airport (EDDC)

Arrival

Time N/A
Airport Palma de Mallorca Airport (LEPA)
Time Latitude Longitude Altitude Speed Heading
2026-05-08 15:09 51.12789 13.76693 757 ft 0 kts 40°
2026-05-08 15:24 51.12781 13.76682 752 ft 2 kts 38°
2026-05-08 15:24 51.12768 13.76671 752 ft 0 kts 56°
2026-05-08 15:25 51.12760 13.76650 754 ft 3 kts 36°
2026-05-08 15:25 51.12744 13.76634 753 ft 3 kts 354°
2026-05-08 15:25 51.12726 13.76637 753 ft 0 kts 309°
2026-05-08 15:28 51.12729 13.76631 753 ft 2 kts 309°
2026-05-08 15:28 51.12747 13.76596 754 ft 6 kts 309°
2026-05-08 15:29 51.12782 13.76530 753 ft 9 kts 310°
2026-05-08 15:29 51.12800 13.76430 755 ft 10 kts 257°
2026-05-08 15:29 51.12750 13.76340 752 ft 12 kts 222°
2026-05-08 15:29 51.12687 13.76248 754 ft 12 kts 221°
2026-05-08 15:30 51.12624 13.76164 756 ft 11 kts 220°
2026-05-08 15:30 51.12564 13.76082 757 ft 11 kts 221°
2026-05-08 15:30 51.12508 13.76003 761 ft 10 kts 221°
2026-05-08 15:30 51.12460 13.75938 769 ft 9 kts 221°
2026-05-08 15:31 51.12413 13.75872 770 ft 10 kts 221°
2026-05-08 15:31 51.12379 13.75778 771 ft 10 kts 262°
2026-05-08 15:31 51.12397 13.75670 771 ft 10 kts 292°
2026-05-08 15:31 51.12403 13.75646 771 ft 2 kts 292°
2026-05-08 15:32 51.12409 13.75623 771 ft 2 kts 292°
2026-05-08 15:32 51.12412 13.75612 771 ft 0 kts 292°
2026-05-08 15:32 51.12420 13.75594 772 ft 5 kts 305°
2026-05-08 15:32 51.12457 13.75537 774 ft 9 kts 332°
2026-05-08 15:33 51.12517 13.75554 773 ft 8 kts 28°
2026-05-08 15:33 51.12519 13.75556 773 ft 0 kts 30°
2026-05-08 15:33 51.12586 13.75634 772 ft 46 kts 39°
2026-05-08 15:33 51.13073 13.76303 752 ft 135 kts 41°
2026-05-08 15:34 51.13927 13.77497 984 ft 178 kts 42°
2026-05-08 15:34 51.14801 13.78801 2025 ft 167 kts 44°
2026-05-08 15:34 51.15666 13.80077 2897 ft 176 kts 42°
2026-05-08 15:34 51.16642 13.81433 3473 ft 196 kts 41°
2026-05-08 15:35 51.17747 13.82927 3993 ft 218 kts 40°
2026-05-08 15:35 51.18961 13.84557 4515 ft 238 kts 40°
2026-05-08 15:35 51.20237 13.86415 4910 ft 259 kts 51°
2026-05-08 15:35 51.21022 13.89038 5472 ft 267 kts 78°
2026-05-08 15:36 51.20990 13.91958 6204 ft 270 kts 104°
2026-05-08 15:36 51.20147 13.94641 6855 ft 275 kts 130°
2026-05-08 15:36 51.18634 13.96542 7529 ft 278 kts 150°
2026-05-08 15:36 51.16975 13.98194 8228 ft 282 kts 146°
2026-05-08 15:37 51.15401 14.00116 8930 ft 288 kts 140°
2026-05-08 15:37 51.13905 14.02283 9654 ft 292 kts 136°
2026-05-08 15:37 51.12456 14.04593 10379 ft 297 kts 134°
2026-05-08 15:37 51.10974 14.07041 10646 ft 317 kts 134°
2026-05-08 15:38 51.09326 14.09538 10815 ft 337 kts 144°
2026-05-08 15:38 51.07175 14.11115 11260 ft 345 kts 167°
2026-05-08 15:38 51.04820 14.11331 11905 ft 345 kts 189°
2026-05-08 15:38 51.02544 14.10181 12577 ft 343 kts 210°
2026-05-08 15:39 51.00669 14.07863 13265 ft 342 kts 226°
2026-05-08 15:39 50.99031 14.05112 13929 ft 344 kts 230°
2026-05-08 15:39 50.97406 14.02302 14533 ft 346 kts 229°
2026-05-08 15:39 50.95730 13.99524 15095 ft 349 kts 227°
2026-05-08 15:40 50.93999 13.96781 15672 ft 352 kts 226°
2026-05-08 15:40 50.92258 13.94098 16252 ft 355 kts 226°
2026-05-08 15:40 50.90459 13.91363 16826 ft 358 kts 226°
2026-05-08 15:40 50.88649 13.88626 17391 ft 361 kts 225°
2026-05-08 15:41 50.86818 13.85859 17939 ft 364 kts 225°
2026-05-08 15:41 50.84975 13.83075 18498 ft 367 kts 225°
2026-05-08 15:41 50.83138 13.80300 19004 ft 370 kts 225°
2026-05-08 15:41 50.81270 13.77482 19536 ft 372 kts 225°
2026-05-08 15:42 50.79392 13.74651 20041 ft 374 kts 225°
2026-05-08 15:42 50.77503 13.71806 20581 ft 376 kts 225°
2026-05-08 15:42 50.75596 13.68938 21091 ft 379 kts 225°
2026-05-08 15:42 50.73662 13.66079 21628 ft 381 kts 222°
2026-05-08 15:43 50.71447 13.63732 22127 ft 387 kts 210°
2026-05-08 15:43 50.69067 13.62262 22635 ft 393 kts 198°
2026-05-08 15:43 50.66347 13.61484 23162 ft 398 kts 191°
2026-05-08 15:43 50.63599 13.60837 23674 ft 401 kts 191°
2026-05-08 15:44 50.60830 13.60161 24130 ft 403 kts 192°
2026-05-08 15:44 50.58051 13.59467 24590 ft 406 kts 192°
2026-05-08 15:44 50.55251 13.58761 25035 ft 408 kts 192°
2026-05-08 15:44 50.52441 13.58051 25481 ft 410 kts 192°
2026-05-08 15:45 50.49623 13.57341 25954 ft 412 kts 192°
2026-05-08 15:45 50.46779 13.56625 26376 ft 415 kts 192°
2026-05-08 15:45 50.43915 13.55905 26806 ft 417 kts 192°
2026-05-08 15:45 50.41038 13.55183 27243 ft 420 kts 192°
2026-05-08 15:46 50.38181 13.54466 27662 ft 422 kts 192°
2026-05-08 15:46 50.35268 13.53737 28078 ft 425 kts 192°
2026-05-08 15:46 50.32332 13.53003 28484 ft 427 kts 192°
2026-05-08 15:46 50.29391 13.52267 28881 ft 430 kts 192°
2026-05-08 15:47 50.26430 13.51528 29263 ft 432 kts 192°
2026-05-08 15:47 50.23448 13.50786 29637 ft 435 kts 192°
2026-05-08 15:47 50.20449 13.50040 30030 ft 437 kts 192°
2026-05-08 15:47 50.17435 13.49292 30386 ft 439 kts 192°
2026-05-08 15:48 50.11362 13.47785 31069 ft 444 kts 192°
2026-05-08 15:48 50.08300 13.47027 31383 ft 446 kts 192°
2026-05-08 15:48 50.05263 13.46276 31769 ft 448 kts 191°
2026-05-08 15:49 50.02175 13.45514 32066 ft 451 kts 191°
2026-05-08 15:49 49.99061 13.44747 32362 ft 453 kts 191°
2026-05-08 15:49 49.95934 13.43977 32665 ft 455 kts 191°
2026-05-08 15:49 49.92796 13.43205 32924 ft 458 kts 191°
2026-05-08 15:50 49.89641 13.42430 33147 ft 459 kts 191°
2026-05-08 15:50 49.86481 13.41655 33285 ft 462 kts 191°
2026-05-08 15:50 49.83300 13.40876 33542 ft 459 kts 191°
2026-05-08 15:50 49.80184 13.40115 33714 ft 460 kts 191°
2026-05-08 15:51 49.77006 13.39339 33900 ft 461 kts 191°
2026-05-08 15:51 49.73836 13.38566 34100 ft 461 kts 191°
2026-05-08 15:51 49.70673 13.37796 34276 ft 461 kts 191°
2026-05-08 15:51 49.67502 13.37024 34433 ft 461 kts 191°
2026-05-08 15:52 49.64333 13.36254 34593 ft 461 kts 191°
2026-05-08 15:52 49.61173 13.35489 34821 ft 459 kts 191°
2026-05-08 15:52 49.58056 13.34734 34986 ft 459 kts 191°
2026-05-08 15:52 49.54858 13.33959 35138 ft 459 kts 191°
2026-05-08 15:53 49.51740 13.33203 35287 ft 459 kts 191°
2026-05-08 15:53 49.48572 13.32436 35440 ft 460 kts 191°
2026-05-08 15:53 49.45415 13.31674 35597 ft 460 kts 191°
2026-05-08 15:53 49.42253 13.30911 35736 ft 460 kts 191°
2026-05-08 15:54 49.39095 13.30155 35990 ft 457 kts 192°
2026-05-08 15:54 49.35947 13.29399 36144 ft 457 kts 192°
2026-05-08 15:54 49.32803 13.28642 36276 ft 458 kts 192°
2026-05-08 15:54 49.29662 13.27828 36406 ft 457 kts 195°
2026-05-08 15:55 49.26593 13.26600 36520 ft 455 kts 200°
2026-05-08 15:55 49.20846 13.22797 36768 ft 452 kts 211°
2026-05-08 15:55 49.18188 13.20259 37030 ft 447 kts 217°
2026-05-08 15:56 49.15658 13.17490 37150 ft 447 kts 218°
2026-05-08 15:56 49.13124 13.14722 37242 ft 448 kts 217°
2026-05-08 15:56 49.10576 13.11960 37391 ft 448 kts 217°
2026-05-08 15:56 49.08028 13.09216 37490 ft 449 kts 217°
2026-05-08 15:57 49.05471 13.06473 37617 ft 449 kts 217°
2026-05-08 15:57 49.02939 13.03763 37767 ft 450 kts 217°
2026-05-08 15:57 49.00375 13.01020 37871 ft 450 kts 217°
2026-05-08 15:57 48.97812 12.98283 38054 ft 449 kts 217°
2026-05-08 15:58 48.95251 12.95550 38167 ft 450 kts 217°
2026-05-08 15:58 48.92677 12.92808 38260 ft 451 kts 217°
2026-05-08 15:58 48.90108 12.90073 38404 ft 451 kts 217°
2026-05-08 15:58 48.87528 12.87331 38536 ft 452 kts 217°
2026-05-08 15:59 48.84949 12.84593 38644 ft 452 kts 217°
2026-05-08 15:59 48.83243 12.82784 38712 ft 452 kts 217°
2026-05-08 15:59 48.78069 12.77307 38906 ft 452 kts 217°
2026-05-08 16:00 48.75485 12.74577 39011 ft 452 kts 217°
2026-05-08 16:00 48.72906 12.71855 39114 ft 452 kts 217°
2026-05-08 16:00 48.67732 12.66406 39304 ft 452 kts 217°
2026-05-08 16:01 48.62551 12.60962 39489 ft 453 kts 217°
2026-05-08 16:01 48.57374 12.55538 39658 ft 452 kts 217°
2026-05-08 16:02 48.52224 12.50155 39845 ft 453 kts 217°
2026-05-08 16:02 48.47042 12.44751 40010 ft 453 kts 217°
2026-05-08 16:03 48.41853 12.39355 40069 ft 453 kts 217°
2026-05-08 16:03 48.36672 12.33982 40064 ft 452 kts 217°
2026-05-08 16:04 48.31522 12.28654 40062 ft 452 kts 217°
2026-05-08 16:04 48.26332 12.23297 40065 ft 452 kts 217°
2026-05-08 16:05 48.21045 12.17878 40058 ft 452 kts 215°
2026-05-08 16:05 48.15617 12.13357 40058 ft 455 kts 207°
2026-05-08 16:06 48.09697 12.09930 40056 ft 458 kts 200°
2026-05-08 16:06 48.03582 12.07377 40055 ft 459 kts 199°
2026-05-08 16:07 47.97432 12.04790 40052 ft 459 kts 199°
2026-05-08 16:07 47.91284 12.02188 40041 ft 459 kts 199°
2026-05-08 16:08 47.85133 11.99589 40043 ft 459 kts 199°
2026-05-08 16:08 47.78980 11.96998 40050 ft 459 kts 199°
2026-05-08 16:09 47.72841 11.94419 40040 ft 459 kts 199°
2026-05-08 16:09 47.66795 11.91620 40038 ft 458 kts 201°
2026-05-08 16:10 47.60737 11.88677 40038 ft 458 kts 201°
2026-05-08 16:10 47.54650 11.85773 40041 ft 459 kts 201°
2026-05-08 16:11 47.48573 11.82902 40035 ft 458 kts 201°
2026-05-08 16:11 47.42487 11.80039 40033 ft 459 kts 201°
2026-05-08 16:12 47.36424 11.77294 40020 ft 459 kts 197°
2026-05-08 16:12 47.30110 11.75542 40019 ft 462 kts 192°
2026-05-08 16:13 47.23746 11.74114 40019 ft 462 kts 192°
2026-05-08 16:13 47.17368 11.72647 40013 ft 462 kts 192°
2026-05-08 16:14 47.11014 11.71180 40011 ft 462 kts 192°
2026-05-08 16:14 47.04712 11.69606 40007 ft 460 kts 196°
2026-05-08 16:15 46.98618 11.66922 39998 ft 455 kts 204°
2026-05-08 16:15 46.92851 11.63141 39999 ft 453 kts 208°
2026-05-08 16:16 46.87128 11.59257 40004 ft 453 kts 207°
2026-05-08 16:16 46.81383 11.55428 40003 ft 454 kts 206°
2026-05-08 16:17 46.76577 11.52312 39996 ft 453 kts 206°
2026-05-08 16:17 46.69880 11.47832 39989 ft 452 kts 210°
2026-05-08 16:18 46.64539 11.43086 39983 ft 449 kts 216°
2026-05-08 16:18 46.59362 11.38052 39978 ft 450 kts 216°
2026-05-08 16:19 46.54157 11.32955 40033 ft 452 kts 217°
2026-05-08 16:19 46.48927 11.27891 40218 ft 452 kts 216°
2026-05-08 16:20 46.43666 11.22875 40471 ft 452 kts 216°
2026-05-08 16:20 46.38408 11.17885 40739 ft 450 kts 216°
2026-05-08 16:21 46.33151 11.12905 40880 ft 451 kts 216°
2026-05-08 16:21 46.27927 11.07968 41047 ft 451 kts 216°
2026-05-08 16:22 46.22661 11.03003 41129 ft 451 kts 216°
2026-05-08 16:22 46.17404 10.98058 41128 ft 450 kts 216°
2026-05-08 16:23 46.12139 10.93114 41136 ft 451 kts 216°
2026-05-08 16:23 46.06887 10.88196 41136 ft 451 kts 216°
2026-05-08 16:24 46.01654 10.83307 41126 ft 450 kts 216°
2026-05-08 16:24 45.96379 10.78387 41122 ft 451 kts 216°
2026-05-08 16:25 45.91141 10.73515 41123 ft 451 kts 215°
2026-05-08 16:25 45.85883 10.68635 41105 ft 449 kts 216°
2026-05-08 16:26 45.80638 10.63777 41092 ft 448 kts 216°
2026-05-08 16:26 45.75396 10.58934 41070 ft 447 kts 215°
2026-05-08 16:27 45.70151 10.54097 41069 ft 449 kts 216°
2026-05-08 16:27 45.64886 10.49253 41040 ft 450 kts 216°
2026-05-08 16:28 45.59628 10.44428 41043 ft 449 kts 216°
2026-05-08 16:28 45.54362 10.39602 41036 ft 450 kts 216°
2026-05-08 16:29 45.49129 10.34821 41033 ft 449 kts 216°
2026-05-08 16:29 45.43862 10.30020 41033 ft 449 kts 215°
2026-05-08 16:30 45.38600 10.25233 41032 ft 448 kts 215°
2026-05-08 16:30 45.33339 10.20456 41026 ft 448 kts 215°
2026-05-08 16:31 45.28078 10.15692 41020 ft 448 kts 215°
2026-05-08 16:31 45.22818 10.10938 41025 ft 448 kts 215°
2026-05-08 16:32 45.17596 10.06230 41028 ft 447 kts 215°
2026-05-08 16:32 45.12327 10.01488 41016 ft 448 kts 215°
2026-05-08 16:33 45.07059 9.96759 41024 ft 448 kts 215°
2026-05-08 16:33 45.01828 9.92073 41026 ft 448 kts 215°
2026-05-08 16:34 44.96557 9.87362 41017 ft 448 kts 215°
2026-05-08 16:34 44.91283 9.82659 41021 ft 448 kts 215°
2026-05-08 16:35 44.86006 9.77962 41021 ft 448 kts 215°
2026-05-08 16:35 44.80764 9.73308 41025 ft 448 kts 215°
2026-05-08 16:36 44.75483 9.68629 41025 ft 447 kts 215°
2026-05-08 16:36 44.70208 9.63965 41025 ft 448 kts 215°
2026-05-08 16:37 44.64927 9.59306 41028 ft 448 kts 215°
2026-05-08 16:37 44.59651 9.54660 41010 ft 448 kts 215°
2026-05-08 16:38 44.54396 9.50050 41018 ft 448 kts 215°
2026-05-08 16:38 44.49098 9.45406 41022 ft 449 kts 215°
2026-05-08 16:39 44.43800 9.40769 41015 ft 449 kts 215°
2026-05-08 16:39 44.38486 9.36133 41009 ft 450 kts 215°
2026-05-08 16:40 44.33194 9.31529 41014 ft 450 kts 215°
2026-05-08 16:40 44.27870 9.26903 41013 ft 451 kts 215°
2026-05-08 16:41 44.22542 9.22282 41003 ft 451 kts 215°
2026-05-08 16:42 44.14582 9.15398 41004 ft 451 kts 215°
2026-05-08 16:42 44.09247 9.10797 41005 ft 451 kts 215°
2026-05-08 16:43 44.03898 9.06195 41010 ft 451 kts 215°
2026-05-08 16:43 43.98593 9.01640 41009 ft 451 kts 215°
2026-05-08 16:44 43.93250 8.97061 41011 ft 451 kts 215°
2026-05-08 16:44 43.87909 8.92493 41011 ft 451 kts 215°
2026-05-08 16:45 43.82571 8.87941 41023 ft 450 kts 216°
2026-05-08 16:45 43.77237 8.83399 41015 ft 449 kts 215°
2026-05-08 16:46 43.71937 8.78893 41021 ft 449 kts 215°
2026-05-08 16:46 43.66486 8.74645 41006 ft 450 kts 208°
2026-05-08 16:47 43.60502 8.71985 41011 ft 456 kts 196°
2026-05-08 16:47 43.55226 8.71178 41026 ft 461 kts 185°
2026-05-08 16:48 43.48879 8.70623 40999 ft 452 kts 199°
2026-05-08 16:48 43.43219 8.67257 41001 ft 439 kts 218°
2026-05-08 16:49 43.38643 8.61873 41003 ft 435 kts 225°
2026-05-08 16:49 43.34150 8.56285 41023 ft 434 kts 225°
2026-05-08 16:50 43.29649 8.50739 41033 ft 434 kts 225°
2026-05-08 16:50 43.25175 8.45236 41022 ft 434 kts 225°
2026-05-08 16:51 43.20674 8.39711 41017 ft 434 kts 225°
2026-05-08 16:51 43.16170 8.34192 41035 ft 434 kts 225°
2026-05-08 16:52 43.11666 8.28683 41025 ft 433 kts 224°
2026-05-08 16:52 43.07195 8.23227 41028 ft 433 kts 224°
2026-05-08 16:53 43.00433 8.14996 41025 ft 433 kts 224°
2026-05-08 16:53 42.95950 8.09555 41025 ft 433 kts 224°
2026-05-08 16:54 42.91438 8.04088 41025 ft 433 kts 224°
2026-05-08 16:54 42.86933 7.98641 41030 ft 433 kts 224°
2026-05-08 16:55 42.82418 7.93191 41030 ft 433 kts 224°
2026-05-08 16:55 42.77897 7.87748 41029 ft 434 kts 224°
2026-05-08 16:56 42.73372 7.82310 41030 ft 433 kts 224°
2026-05-08 16:56 42.68879 7.76921 41029 ft 433 kts 224°
2026-05-08 16:57 42.64341 7.71490 41033 ft 434 kts 224°
2026-05-08 16:57 42.59802 7.66069 41033 ft 434 kts 224°
2026-05-08 16:58 42.55264 7.60659 41034 ft 434 kts 224°
2026-05-08 16:58 42.50753 7.55292 41033 ft 434 kts 224°
2026-05-08 16:59 42.46196 7.49881 41032 ft 434 kts 224°
2026-05-08 16:59 42.41644 7.44489 41034 ft 435 kts 224°
2026-05-08 17:00 42.37093 7.39106 41016 ft 435 kts 224°
2026-05-08 17:00 42.32541 7.33735 41038 ft 434 kts 224°
2026-05-08 17:01 42.28022 7.28412 41034 ft 434 kts 223°
2026-05-08 17:01 42.23467 7.23058 41038 ft 434 kts 223°
2026-05-08 17:02 42.18909 7.17711 41033 ft 434 kts 223°
2026-05-08 17:02 42.14353 7.12377 41043 ft 433 kts 223°
2026-05-08 17:03 42.09794 7.07049 41041 ft 433 kts 223°
2026-05-08 17:03 42.05265 7.01767 41040 ft 433 kts 223°
2026-05-08 17:04 42.00709 6.96439 41036 ft 433 kts 224°
2026-05-08 17:04 41.96269 6.90973 41039 ft 432 kts 225°
2026-05-08 17:05 41.91850 6.85508 41040 ft 432 kts 225°
2026-05-08 17:05 41.87444 6.80107 41031 ft 432 kts 225°
2026-05-08 17:06 41.83002 6.74685 41032 ft 432 kts 224°
2026-05-08 17:06 41.78557 6.69271 41021 ft 432 kts 224°
2026-05-08 17:07 41.74107 6.63860 41032 ft 432 kts 224°
2026-05-08 17:07 41.69653 6.58456 41032 ft 432 kts 224°
2026-05-08 17:08 41.65194 6.53054 41031 ft 432 kts 224°
2026-05-08 17:08 41.60737 6.47667 41031 ft 432 kts 224°
2026-05-08 17:09 41.56305 6.42320 41028 ft 432 kts 224°
2026-05-08 17:09 41.51838 6.36941 41030 ft 432 kts 224°
2026-05-08 17:10 41.47365 6.31565 41030 ft 432 kts 224°
2026-05-08 17:10 41.42923 6.26237 41030 ft 432 kts 224°
2026-05-08 17:11 41.38447 6.20879 41015 ft 432 kts 224°
2026-05-08 17:11 41.33961 6.15521 41022 ft 432 kts 224°
2026-05-08 17:12 41.29485 6.10181 41038 ft 432 kts 224°
2026-05-08 17:12 41.25033 6.04881 41030 ft 432 kts 224°
2026-05-08 17:13 41.20538 5.99542 41026 ft 433 kts 224°
2026-05-08 17:13 41.16049 5.94222 41023 ft 432 kts 225°
2026-05-08 17:14 41.11554 5.88902 41023 ft 432 kts 225°
2026-05-08 17:14 41.07070 5.83603 41024 ft 432 kts 225°
2026-05-08 17:15 41.02607 5.78342 41024 ft 432 kts 225°
2026-05-08 17:15 40.98114 5.73055 41012 ft 431 kts 225°
2026-05-08 17:16 40.93941 5.67405 41026 ft 427 kts 232°
2026-05-08 17:16 40.90409 5.61114 41022 ft 425 kts 237°
2026-05-08 17:17 40.87016 5.54717 41015 ft 425 kts 237°
2026-05-08 17:17 40.83621 5.48385 41019 ft 425 kts 237°
2026-05-08 17:18 40.80196 5.42019 40971 ft 425 kts 237°
2026-05-08 17:18 40.78480 5.38836 40748 ft 425 kts 237°
2026-05-08 17:18 40.76770 5.35670 40393 ft 422 kts 237°
2026-05-08 17:19 40.75065 5.32515 39464 ft 422 kts 237°
2026-05-08 17:19 40.73364 5.29366 38634 ft 419 kts 237°
2026-05-08 17:19 40.71678 5.26251 37599 ft 416 kts 237°
2026-05-08 17:19 40.70014 5.23176 36889 ft 409 kts 237°
2026-05-08 17:20 40.68364 5.20131 36032 ft 407 kts 237°
2026-05-08 17:20 40.66708 5.17076 34981 ft 410 kts 236°
2026-05-08 17:20 40.65073 5.14064 34024 ft 409 kts 236°
2026-05-08 17:20 40.63405 5.10994 32887 ft 413 kts 236°
2026-05-08 17:21 40.61722 5.07901 31883 ft 418 kts 236°
2026-05-08 17:21 40.60012 5.04762 30993 ft 425 kts 235°
2026-05-08 17:21 40.58267 5.01562 30423 ft 434 kts 235°
2026-05-08 17:21 40.56498 4.98323 29766 ft 438 kts 235°
2026-05-08 17:22 40.54721 4.95074 29084 ft 436 kts 235°
2026-05-08 17:22 40.52975 4.91885 28403 ft 432 kts 235°
2026-05-08 17:22 40.51231 4.88703 27740 ft 427 kts 235°
2026-05-08 17:22 40.49504 4.85556 27076 ft 421 kts 235°
2026-05-08 17:23 40.47798 4.82449 26424 ft 416 kts 235°
2026-05-08 17:23 40.46110 4.79377 25765 ft 411 kts 236°
2026-05-08 17:23 40.44441 4.76342 25125 ft 407 kts 236°
2026-05-08 17:23 40.42789 4.73337 24458 ft 403 kts 236°
2026-05-08 17:24 40.41159 4.70378 23834 ft 399 kts 236°
2026-05-08 17:24 40.39541 4.67441 23086 ft 395 kts 236°
2026-05-08 17:24 40.37949 4.64556 22637 ft 385 kts 236°
2026-05-08 17:24 40.36425 4.61804 22450 ft 371 kts 236°
2026-05-08 17:25 40.34901 4.59046 22221 ft 377 kts 236°
2026-05-08 17:25 40.33359 4.56254 21939 ft 376 kts 236°
2026-05-08 17:25 40.31828 4.53490 21650 ft 373 kts 236°
2026-05-08 17:25 40.30305 4.50743 21358 ft 372 kts 236°
2026-05-08 17:26 40.28782 4.47998 21084 ft 371 kts 236°
2026-05-08 17:26 40.27271 4.45274 20817 ft 370 kts 236°
2026-05-08 17:26 40.25761 4.42556 20522 ft 368 kts 236°
2026-05-08 17:26 40.24257 4.39852 20245 ft 367 kts 236°
2026-05-08 17:27 40.22759 4.37160 19968 ft 365 kts 236°